Preview of NWS' New Version of Forecast
This preview is not operational and should not be used for support decisions.

Regional Weather Roundup (RWR)

Issued by National Weather Service (NWS)

                            
000
ASUS45 KABQ 191401
RWRNM 
NEW MEXICO REGIONAL WEATHER ROUNDUP
NATIONAL WEATHER SERVICE ALBUQUERQUE NM
800 AM MDT MON AUG 19 2019

NOTE: "FAIR" MEANS FEW OR NO CLOUDS BELOW 12,000 FEET AGL WITH NO
       SIGNIFICANT WEATHER OR OBSTRUCTIONS TO VISION.

      THIS PRODUCT IS RELEASED AS TWO VERSIONS.  ONE VERSION NEAR
      THE TOP OF THE HOUR CONTAINING PRELIMINARY DATA FROM ALBUQUERQUE
      AND OTHER STATIONS.  A FINAL VERSION WITH ADDITIONAL DATA IS 
      ISSUED ABOUT 10 MINUTES AFTER THE HOUR.
 
NMZ501-503-504-510>518-191500-
NORTHWEST PLATEAU/NORTHCENTRAL MOUNTAINS
  
CITY           SKY/WX    TMP DP  RH WIND       PRES   REMARKS
FARMINGTON     FAIR      64  30  27 E8        30.20R                  
LOS ALAMOS       N/A     68  27  21 N3        30.32R                  
SANTA FE       FAIR      68  31  25 N12       30.25R                  
TAOS             N/A     54  32  43 N3        30.34R                  
ANGEL FIRE     FAIR      47  34  60 CALM      30.45S                  

$$
NMZ402-403-502-505>509-191500-
WESTCENTRAL MOUNTAINS/SOUTHWEST MOUNTAINS
  
CITY           SKY/WX    TMP DP  RH WIND       PRES   REMARKS
GALLUP         FAIR      59  27  29 NE3       30.28R                  
GRANTS         FAIR      56  33  40 NW5       30.31R                  
SILVER CITY    FAIR      73  36  25 NW12G18   30.18R                  

$$
NMZ407-409-411-412-191500-
SOUTHERN DESERTS
  
CITY           SKY/WX    TMP DP  RH WIND       PRES   REMARKS
DEMING         FAIR      69  39  33 SW8       30.10R                  
LAS CRUCES     CLOUDY    77  35  21 SW7       30.10S                  
HOLLOMAN AFB   CLOUDY    78  42  28 SE7       30.08R                  
ALAMOGORDO     FAIR      82  39  21 S10       30.08R                  
T OR C         FAIR      78  34  20 NE6       30.12R                  

$$
NMZ519>523-191500-
CENTRAL VALLEYS/CENTRAL HIGHLANDS
  
CITY           SKY/WX    TMP DP  RH WIND       PRES   REMARKS
ALBUQUERQUE    FAIR      69  35  28 NW7       30.18R                  
DOUBLE EAGLE   MOSUNNY   68  32  26 CALM      30.21S                  
CLINES CORNERS NOT AVBL                                               
BELEN          FAIR      68  30  24 CALM      30.18R                  
SOCORRO        FAIR      73  32  22 N3        30.14R                  

$$
NMZ524>526-539-540-191500-
SOUTHCENTRAL MOUNTAINS
  
CITY           SKY/WX    TMP DP  RH WIND       PRES   REMARKS
RUIDOSO        PTSUNNY   70  43  37 SW6       30.31R                  

$$
NMZ527>531-191500-
NORTHEAST HIGHLANDS/NORTHEAST PLAINS
  
CITY           SKY/WX    TMP DP  RH WIND       PRES   REMARKS
LAS VEGAS      FAIR      64  37  36 N6        30.29R                  
RATON          FAIR      61  50  67 NE6       30.24R                  
CLAYTON        FAIR      71  58  63 SW6       30.12R                  

$$
NMZ532>537-191500-
EASTCENTRAL PLAINS
  
CITY           SKY/WX    TMP DP  RH WIND       PRES   REMARKS
TUCUMCARI      FAIR      78  56  46 N7        30.05R                  
CANNON AFB     FAIR      76  61  58 S7        30.10R                  
CLOVIS AIRPORT FAIR      77  61  57 SW13      30.09S                  

$$
NMZ028-029-538-191500-
SOUTHEAST PLAINS
  
CITY           SKY/WX    TMP DP  RH WIND       PRES   REMARKS
ROSWELL        FAIR      82  49  31 SW6       30.02R                  
ARTESIA        FAIR      81  59  47 CALM      30.04R                  
CARLSBAD       FAIR      81  60  48 S12       30.00R                  
HOBBS          MOSUNNY   81  61  50 S17       30.06R                  


$$